This is the latest recevied weather packets stored in our database for station/object DW9280. If no packets are shown the sender has not sent any weather packets the latest 10 day(s).
| Time | Temp. | Humidity | Pressure | Rain* | Wind** | Luminosity | Snow |
|---|---|---|---|---|---|---|---|
| 1787573888 | 21.67° C | 56% | 1021.8 hPa | 0 mm | - | 744 W/m² | - |
| 1787573589 | 21.67° C | 56% | 1021.9 hPa | 0 mm | - | 744 W/m² | - |
| 1787573289 | 21.11° C | 57% | 1021.9 hPa | 0 mm | - | 800 W/m² | - |
| 1787572987 | 21.11° C | 58% | 1022.1 hPa | 0 mm | - | 803 W/m² | - |
| 1787572689 | 21.67° C | 58% | 1022.2 hPa | 0 mm | - | 810 W/m² | - |
| 1787572388 | 21.11° C | 59% | 1022.2 hPa | 0 mm | - | 802 W/m² | - |
| 1787572091 | 21.11° C | 58% | 1022.2 hPa | 0 mm | - | 826 W/m² | - |
| 1787571787 | 21.11° C | 60% | 1022.2 hPa | 0 mm | - | 814 W/m² | - |
| 1787571486 | 21.11° C | 59% | 1022.2 hPa | 0 mm | - | 877 W/m² | - |
| 1787571187 | 21.11° C | 58% | 1022.3 hPa | 0 mm | - | 838 W/m² | - |
| 1787570887 | 21.11° C | 59% | 1022.3 hPa | 0 mm | - | 805 W/m² | - |
| 1787570586 | 21.11° C | 58% | 1022.4 hPa | 0 mm | - | 619 W/m² | - |
| 1787570287 | 20.56° C | 59% | 1022.4 hPa | 0 mm | - | 788 W/m² | - |
| 1787569987 | 20.56° C | 59% | 1022.4 hPa | 0 mm | - | 800 W/m² | - |
| 1787569688 | 20° C | 59% | 1022.4 hPa | 0 mm | - | 267 W/m² | - |
| 1787569388 | 20.56° C | 58% | 1022.3 hPa | 0 mm | - | 919 W/m² | - |
| 1787569087 | 21.11° C | 58% | 1022.4 hPa | 0 mm | - | 919 W/m² | - |
| 1787568786 | 21.11° C | 59% | 1022.4 hPa | 0 mm | - | 838 W/m² | - |
| 1787568525 | 20° C | 61% | 1022.5 hPa | 0 mm | - | 835 W/m² | - |
| 1787568314 | 20° C | 60% | 1022.5 hPa | 0 mm | - | 148 W/m² | - |
| 1787567887 | 20.56° C | 59% | 1022.6 hPa | 0 mm | - | 156 W/m² | - |
| 1787567587 | 20.56° C | 61% | 1022.6 hPa | 0 mm | - | 779 W/m² | - |
| 1787567288 | 20.56° C | 61% | 1022.6 hPa | 0 mm | - | 749 W/m² | - |
| 1787566988 | 20.56° C | 61% | 1022.7 hPa | 0 mm | - | 721 W/m² | - |
| 1787566688 | 20.56° C | 61% | 1022.8 hPa | 0 mm | - | 733 W/m² | - |
* Rain latest hour (hover to see other rain measurements)
** Current wind speed in m/s (hover to see current wind gust speed)